• In Kazakhstan
  • List of Countries
  • For 7 days
  • Water Temperature
  • Satellite Maps
  • Weather Map
  • News
  • Weather Widgets
  • user-avatar
    Login

    Hourly Weather Frankfort

    Today, 24 November, Friday

    Time Temperature Precipitation Wind Pressure Humidity
    00:00 +2°C° 0 mm 2 mps 742 mmHg 65%
    01:00 +2°C° 0 mm 2 mps 742 mmHg 66%
    02:00 +1°C° 0 mm 2 mps 742 mmHg 67%
    03:00 +1°C° 0 mm 2 mps 742 mmHg 68%
    04:00 +1°C° 0 mm 2 mps 742 mmHg 68%
    05:00 +1°C° 0 mm 2 mps 742 mmHg 67%
    06:00 -1°C° 0 mm 2 mps 742 mmHg 67%
    07:00 +2°C° 0 mm 2 mps 742 mmHg 62%
    08:00 +3°C° 0 mm 3 mps 742 mmHg 56%
    09:00 +5°C° 0 mm 3 mps 742 mmHg 51%
    10:00 +8°C° 0 mm 3 mps 741 mmHg 49%
    11:00 +10°C° 0 mm 4 mps 740 mmHg 47%
    12:00 +11°C° 0 mm 4 mps 740 mmHg 45%
    13:00 +11°C° 0 mm 4 mps 739 mmHg 48%
    14:00 +11°C° 0 mm 4 mps 739 mmHg 52%
    15:00 +11°C° 0 mm 3 mps 738 mmHg 55%
    16:00 +10°C° 0 mm 4 mps 738 mmHg 60%
    17:00 +7°C° 0 mm 4 mps 738 mmHg 64%
    18:00 +6°C° 0 mm 4 mps 738 mmHg 69%
    19:00 +6°C° 0 mm 4 mps 738 mmHg 69%
    20:00 +6°C° 0 mm 4 mps 738 mmHg 69%
    21:00 +7°C° 0 mm 5 mps 738 mmHg 70%
    22:00 +7°C° 0 mm 5 mps 737 mmHg 70%
    23:00 +7°C° 0 mm 5 mps 737 mmHg 70%

    Tomorrow, 25 November, Saturday

    Time Temperature Precipitation Wind Pressure Humidity
    00:00 +7°C° 0 mm 5 mps 737 mmHg 70%
    01:00 +7°C° 0 mm 5 mps 737 mmHg 68%
    02:00 +7°C° 0 mm 5 mps 737 mmHg 67%
    03:00 +7°C° 0 mm 5 mps 737 mmHg 65%
    04:00 +7°C° 0 mm 5 mps 737 mmHg 65%
    05:00 +7°C° 0 mm 5 mps 737 mmHg 66%
    06:00 +7°C° 0 mm 4 mps 738 mmHg 67%
    07:00 +7°C° 0 mm 4 mps 738 mmHg 67%
    08:00 +8°C° 0 mm 4 mps 739 mmHg 67%
    09:00 +9°C° 0 mm 5 mps 739 mmHg 68%
    10:00 +11°C° 0 mm 4 mps 739 mmHg 67%
    11:00 +12°C° 0 mm 4 mps 740 mmHg 67%
    12:00 +13°C° 0 mm 4 mps 740 mmHg 67%
    13:00 +13°C° 0 mm 4 mps 740 mmHg 66%
    14:00 +13°C° 0 mm 4 mps 740 mmHg 65%
    15:00 +12°C° 0 mm 4 mps 740 mmHg 64%
    16:00 +10°C° 0 mm 4 mps 741 mmHg 67%
    17:00 +8°C° 0 mm 3 mps 742 mmHg 69%
    18:00 +5°C° 0 mm 3 mps 743 mmHg 72%
    19:00 +5°C° 0 mm 3 mps 743 mmHg 73%
    20:00 +4°C° 0 mm 3 mps 744 mmHg 74%
    21:00 +3°C° 0 mm 3 mps 745 mmHg 75%
    22:00 +3°C° 0 mm 2 mps 745 mmHg 77%
    23:00 +2°C° 0 mm 2 mps 745 mmHg 80%

    Day after tomorrow, 26 November, Sunday

    Time Temperature Precipitation Wind Pressure Humidity
    00:00 +2°C° 0 mm 2 mps 746 mmHg 82%
    01:00 +1°C° 0 mm 2 mps 746 mmHg 84%
    02:00 +2°C° 0 mm 1 mps 746 mmHg 85%
    03:00 +1°C° 0 mm 1 mps 746 mmHg 87%
    04:00 +1°C° 0 mm 1 mps 747 mmHg 87%
    05:00 +1°C° 0 mm 1 mps 747 mmHg 87%
    06:00 -1°C° 0 mm 0 mps 747 mmHg 87%
    07:00 +1°C° 0 mm 0 mps 748 mmHg 79%
    08:00 +3°C° 0 mm 0 mps 748 mmHg 70%
    09:00 +4°C° 0 mm 0 mps 749 mmHg 62%
    10:00 +6°C° 0 mm 1 mps 748 mmHg 57%
    11:00 +8°C° 0 mm 1 mps 748 mmHg 53%
    12:00 +9°C° 0 mm 1 mps 747 mmHg 48%
    13:00 +8°C° 0 mm 2 mps 747 mmHg 49%
    14:00 +8°C° 0 mm 2 mps 746 mmHg 51%
    15:00 +8°C° 0 mm 2 mps 746 mmHg 52%
    16:00 +6°C° 0 mm 2 mps 746 mmHg 57%
    17:00 +6°C° 0 mm 1 mps 746 mmHg 62%
    18:00 +4°C° 0 mm 1 mps 746 mmHg 67%
    19:00 +4°C° 0 mm 1 mps 746 mmHg 68%
    20:00 +4°C° 0 mm 1 mps 746 mmHg 69%
    21:00 +3°C° 0 mm 1 mps 746 mmHg 69%
    22:00 +2°C° 0 mm 2 mps 746 mmHg 70%
    23:00 +2°C° 0 mm 2 mps 746 mmHg 71%

    27 November, Monday

    Time Temperature Precipitation Wind Pressure Humidity
    00:00 +2°C° 0 mm 2 mps 746 mmHg 71%
    01:00 +2°C° 0 mm 2 mps 746 mmHg 71%
    02:00 +1°C° 0 mm 2 mps 746 mmHg 72%
    03:00 +1°C° 0 mm 2 mps 746 mmHg 72%
    04:00 +1°C° 0 mm 2 mps 746 mmHg 72%
    05:00 +2°C° 0 mm 1 mps 746 mmHg 72%
    06:00 +2°C° 0 mm 1 mps 746 mmHg 72%
    07:00 +3°C° 0 mm 2 mps 747 mmHg 68%
    08:00 +4°C° 0 mm 2 mps 747 mmHg 63%
    09:00 +6°C° 0 mm 2 mps 747 mmHg 58%
    10:00 +8°C° 0 mm 2 mps 747 mmHg 55%
    11:00 +10°C° 0 mm 2 mps 746 mmHg 52%
    12:00 +13°C° 0 mm 2 mps 746 mmHg 48%
    13:00 +13°C° 0 mm 2 mps 745 mmHg 51%
    14:00 +13°C° 0 mm 2 mps 745 mmHg 54%
    15:00 +13°C° 0 mm 2 mps 744 mmHg 57%
    16:00 +10°C° 0 mm 2 mps 744 mmHg 61%
    17:00 +8°C° 0 mm 2 mps 744 mmHg 66%
    18:00 +6°C° 0 mm 2 mps 745 mmHg 71%
    19:00 +6°C° 0 mm 2 mps 744 mmHg 71%
    20:00 +6°C° 0 mm 2 mps 744 mmHg 71%
    21:00 +5°C° 0 mm 2 mps 744 mmHg 71%
    22:00 +4°C° 0 mm 3 mps 744 mmHg 70%
    23:00 +4°C° 0 mm 3 mps 744 mmHg 68%

    28 November, Tuesday

    Time Temperature Precipitation Wind Pressure Humidity
    00:00 +4°C° 0 mm 3 mps 744 mmHg 67%
    01:00 +4°C° 0 mm 3 mps 744 mmHg 68%
    02:00 +4°C° 0 mm 3 mps 744 mmHg 69%
    03:00 +4°C° 0 mm 3 mps 744 mmHg 69%
    04:00 +4°C° 0 mm 3 mps 744 mmHg 74%
    05:00 +4°C° 0 mm 4 mps 744 mmHg 78%
    06:00 +5°C° 0 mm 4 mps 744 mmHg 83%
    07:00 +6°C° 0 mm 5 mps 744 mmHg 78%
    08:00 +8°C° 0 mm 6 mps 744 mmHg 74%
    09:00 +10°C° 0 mm 7 mps 745 mmHg 70%
    10:00 +11°C° 0 mm 7 mps 744 mmHg 66%
    11:00 +12°C° 0 mm 7 mps 744 mmHg 62%
    12:00 +15°C° 0 mm 7 mps 743 mmHg 59%
    13:00 +15°C° 0 mm 6 mps 743 mmHg 60%
    14:00 +15°C° 0 mm 5 mps 743 mmHg 60%
    15:00 +15°C° 0 mm 5 mps 743 mmHg 61%
    16:00 +13°C° 0 mm 4 mps 743 mmHg 66%
    17:00 +12°C° 0 mm 4 mps 743 mmHg 71%
    18:00 +10°C° 0 mm 4 mps 744 mmHg 76%
    19:00 +10°C° 0 mm 4 mps 744 mmHg 77%
    20:00 +10°C° 0 mm 4 mps 744 mmHg 79%
    21:00 +8°C° 0 mm 4 mps 744 mmHg 81%
    22:00 +8°C° 0 mm 4 mps 744 mmHg 81%
    23:00 +8°C° 0 mm 4 mps 744 mmHg 80%

    29 November, Wednesday

    Time Temperature Precipitation Wind Pressure Humidity
    00:00 +8°C° 0 mm 4 mps 744 mmHg 80%
    01:00 +7°C° 0 mm 4 mps 744 mmHg 80%
    02:00 +7°C° 0 mm 4 mps 744 mmHg 80%
    03:00 +8°C° 0 mm 3 mps 745 mmHg 80%
    04:00 +8°C° 0 mm 3 mps 745 mmHg 81%
    05:00 +7°C° 0 mm 3 mps 745 mmHg 82%
    06:00 +7°C° 0 mm 3 mps 745 mmHg 83%
    07:00 +8°C° 0 mm 3 mps 746 mmHg 79%
    08:00 +9°C° 0 mm 3 mps 746 mmHg 76%
    09:00 +9°C° 0 mm 3 mps 747 mmHg 73%
    10:00 +10°C° 0 mm 3 mps 746 mmHg 71%
    11:00 +12°C° 0 mm 2 mps 746 mmHg 69%
    12:00 +13°C° 0 mm 2 mps 746 mmHg 68%
    13:00 +13°C° 0 mm 2 mps 746 mmHg 70%
    14:00 +13°C° 0 mm 2 mps 746 mmHg 73%
    15:00 +12°C° 0 mm 1 mps 745 mmHg 75%
    16:00 +12°C° 0 mm 1 mps 746 mmHg 79%
    17:00 +11°C° 0 mm 1 mps 746 mmHg 83%
    18:00 +10°C° 0 mm 1 mps 746 mmHg 87%
    19:00 +10°C° 0 mm 1 mps 746 mmHg 87%
    20:00 +10°C° 0 mm 1 mps 746 mmHg 88%
    21:00 +9°C° 0 mm 0 mps 746 mmHg 88%
    22:00 +10°C° 0.1 mm 1 mps 745 mmHg 89%
    23:00 +10°C° 0.1 mm 1 mps 745 mmHg 90%
    Show more